Location: Hanover
(52.3667°N, 9.7167°E)
Time: 06:24:19
(UTC+02:00)

Envisat - Pass Details

Date: 28 September 2024
Orbit: 762 x 764 km, 98.3° (Epoch: 04 October)

Event Time Altitude Azimuth Distance (km) Brightness Sun altitude
Rises 02:54:40 0° 30° (NNE) 3,238 7.3 -35.4°
Reaches altitude 10° 02:58:37 10° 61° (ENE) 2,305 6.1 -35.1°
Maximum altitude 03:00:33 12° 83° (E) 2,162 5.7 -34.9°
Enters shadow 03:02:07 11° 102° (ESE) 2,254 5.6 -34.8°
